Дубки

Россия / Московская область     55°39′47″N   37°12′33″E
темп.,
°C
ветер,
м/с
пор.,
м/с
влажн.,
%
обл.,
%
осадки,
мм/ч
давл.,
гПа
погр.,
м
15 мая, сб
сб1500:00+14в3997100 2.4 1010268
03:00+13вюв3898100 2.4 1009186
06:00+14вюв269861 0.0 1007160
09:00+19ю248149 0.1 1008515
12:00+22ююз466121 1.2 10081311
15:00+23ююз584345 1.4 10072420
18:00+19ююз696299 0.6 10081227
21:00+15ю3108224 0.9 1008434
16 мая, вс
вс1600:00+14ю410898 0.0 1009401
03:00+12ююз399422 0.0 1010334
06:00+12ююз410905 0.0 1011334
09:00+17юз59672 0.0 1012832
12:00+20ююз69511 0.2 10121747
15:00+21юз684941 0.6 10121855
18:00+20зюз486078 0.6 10121051
21:00+16зюз25800 0.6 1014132
17 мая, пн
пн1700:00+14з118697 0.0 101412
03:00+13ю1188100 0.0 101510
06:00+14вюв138392 0.0 101582
09:00+18вюв366380 0.0 1015516
12:00+23вюв4649100 0.0 10141142
15:00+25юв58485 0.0 10121291
18:00+24юв58605 0.0 10111156
21:00+21вюв4117396 0.1 1011525
18 мая, вт
вт1800:00+19юв5147688 0.0 1010469
03:00+17вюв4147878 0.0 1009443
06:00+17вюв41272100 0.0 1009406
09:00+20юв6115691 0.0 1008532
12:00+24юв71246100 0.0 10081029
15:00+26юв71341100 0.0 10071683
18:00+24юв6145477 0.0 10061561
21:00+22юв6136494 0.1 10051233
19 мая, ср
ср1900:00+18ююв411875 0.4 1005602
03:00+16ююв4118793 0.6 1005492
06:00+16ююв5128582 0.0 1005612
09:00+18ююв6117482 0.3 10051120
12:00+17ю61084100 1.8 10061021
15:00+20ю61044100 2.8 10052104
18:00+18ююз58540 0.1 10061605
21:00+14ююв410700 0.1 10071005